Time,TemperatureF,DewpointF,PressureIn,WindDirection,WindDirectionDegrees,WindSpeedMPH,WindSpeedGustMPH,Humidity,HourlyPrecipIn,Conditions,Clouds,dailyrainin,SoftwareType,DateUTC
2013-10-22 00:09:00,53.2,47.2,29.97,NNE,22,2.2,-999.0,80,-99.99,,,0.00,Acu-Link.com,2013-10-22 05:09:00,
2013-10-22 00:24:00,53.1,47.1,29.98,NNW,337,3.7,-999.0,80,-99.99,,,0.00,Acu-Link.com,2013-10-22 05:24:00,
2013-10-22 00:39:00,52.5,46.8,29.98,NNW,337,3.7,-999.0,81,-99.99,,,0.00,Acu-Link.com,2013-10-22 05:39:00,
2013-10-22 00:55:00,52.3,46.6,29.98,NNW,337,2.7,-999.0,81,-99.99,,,0.00,Acu-Link.com,2013-10-22 05:55:00,
2013-10-22 01:10:00,51.8,46.5,29.97,NNW,337,1.1,-999.0,82,-99.99,,,0.00,Acu-Link.com,2013-10-22 06:10:00,
2013-10-22 01:26:00,51.1,46.1,29.99,NNW,337,1.7,-999.0,83,-99.99,,,0.00,Acu-Link.com,2013-10-22 06:26:00,
2013-10-22 01:41:00,50.7,46.0,29.98,NNW,337,1.7,-999.0,84,-99.99,,,0.00,Acu-Link.com,2013-10-22 06:41:00,
2013-10-22 01:56:00,50.2,45.6,29.99,NNW,337,0.0,-999.0,84,-99.99,,,0.00,Acu-Link.com,2013-10-22 06:56:00,
2013-10-22 02:12:00,50.0,45.4,29.99,NNW,337,0.0,-999.0,84,-99.99,,,0.00,Acu-Link.com,2013-10-22 07:12:00,
2013-10-22 02:27:00,49.1,45.7,29.99,NNW,337,0.0,-999.0,88,-99.99,,,0.00,Acu-Link.com,2013-10-22 07:27:00,
2013-10-22 02:43:00,48.6,45.5,29.98,NNW,337,0.0,-999.0,89,-99.99,,,0.00,Acu-Link.com,2013-10-22 07:43:00,
2013-10-22 02:58:00,48.6,45.8,29.98,NNW,337,0.0,-999.0,90,-99.99,,,0.00,Acu-Link.com,2013-10-22 07:58:00,
2013-10-22 03:14:00,48.2,45.4,29.99,NNW,337,0.0,-999.0,90,-99.99,,,0.00,Acu-Link.com,2013-10-22 08:14:00,
2013-10-22 03:29:00,48.2,45.7,29.99,NNW,337,0.0,-999.0,91,-99.99,,,0.00,Acu-Link.com,2013-10-22 08:29:00,
2013-10-22 03:44:00,48.0,45.5,30.00,NNW,337,0.0,-999.0,91,-99.99,,,0.00,Acu-Link.com,2013-10-22 08:44:00,
2013-10-22 04:00:00,47.7,45.2,30.00,NNW,337,0.0,-999.0,91,-99.99,,,0.00,Acu-Link.com,2013-10-22 09:00:00,
2013-10-22 04:15:00,47.5,45.3,29.99,NNW,337,2.7,-999.0,92,-99.99,,,0.00,Acu-Link.com,2013-10-22 09:15:00,
2013-10-22 04:30:00,47.5,45.3,29.99,WNW,292,2.2,-999.0,92,-99.99,,,0.00,Acu-Link.com,2013-10-22 09:30:00,
2013-10-22 04:45:00,46.9,45.0,29.99,West,270,2.7,-999.0,93,-99.99,,,0.00,Acu-Link.com,2013-10-22 09:45:00,
2013-10-22 05:01:00,46.6,44.7,29.98,WNW,292,1.7,-999.0,93,-99.99,,,0.00,Acu-Link.com,2013-10-22 10:01:00,
2013-10-22 05:16:00,46.2,44.3,29.99,WNW,292,0.0,-999.0,93,-99.99,,,0.00,Acu-Link.com,2013-10-22 10:16:00,
2013-10-22 05:31:00,45.7,43.8,29.98,WNW,292,0.0,-999.0,93,-99.99,,,0.00,Acu-Link.com,2013-10-22 10:31:00,
2013-10-22 05:46:00,45.5,43.9,29.99,WNW,292,0.0,-999.0,94,-99.99,,,0.00,Acu-Link.com,2013-10-22 10:46:00,
2013-10-22 06:02:00,44.8,43.5,29.99,WNW,292,0.0,-999.0,95,-99.99,,,0.00,Acu-Link.com,2013-10-22 11:02:00,
2013-10-22 06:17:00,43.9,42.6,30.00,WNW,292,0.0,-999.0,95,-99.99,,,0.00,Acu-Link.com,2013-10-22 11:17:00,
2013-10-22 06:32:00,43.9,42.6,30.00,WNW,292,0.0,-999.0,95,-99.99,,,0.00,Acu-Link.com,2013-10-22 11:32:00,
2013-10-22 06:47:00,43.9,42.8,30.00,WNW,292,0.0,-999.0,96,-99.99,,,0.00,Acu-Link.com,2013-10-22 11:47:00,
2013-10-22 07:02:00,43.5,42.7,30.00,WNW,292,0.0,-999.0,97,-99.99,,,0.00,Acu-Link.com,2013-10-22 12:02:00,
2013-10-22 07:18:00,43.2,42.4,30.01,WNW,292,0.0,-999.0,97,-99.99,,,0.00,Acu-Link.com,2013-10-22 12:18:00,
2013-10-22 07:33:00,43.5,43.0,30.01,NW,315,1.7,-999.0,98,-99.99,,,0.00,Acu-Link.com,2013-10-22 12:33:00,
2013-10-22 07:48:00,43.2,42.7,30.00,NW,315,0.0,-999.0,98,-99.99,,,0.00,Acu-Link.com,2013-10-22 12:48:00,
2013-10-22 08:03:00,43.7,43.2,30.01,NW,315,0.0,-999.0,98,-99.99,,,0.00,Acu-Link.com,2013-10-22 13:03:00,
2013-10-22 08:19:00,45.5,45.2,30.01,NW,315,0.0,-999.0,99,-99.99,,,0.00,Acu-Link.com,2013-10-22 13:19:00,
2013-10-22 08:34:00,47.5,46.4,30.01,NNW,337,1.7,-999.0,96,-99.99,,,0.00,Acu-Link.com,2013-10-22 13:34:00,
2013-10-22 08:49:00,48.6,46.1,30.02,NW,315,0.0,-999.0,91,-99.99,,,0.00,Acu-Link.com,2013-10-22 13:49:00,
2013-10-22 09:04:00,52.2,48.4,30.02,NW,315,2.7,-999.0,87,-99.99,,,0.00,Acu-Link.com,2013-10-22 14:04:00,
2013-10-22 09:20:00,50.7,46.7,30.03,NW,315,2.2,-999.0,86,-99.99,,,0.00,Acu-Link.com,2013-10-22 14:20:00,
2013-10-22 09:35:00,52.7,48.3,30.03,NNW,337,2.7,-999.0,85,-99.99,,,0.00,Acu-Link.com,2013-10-22 14:35:00,
2013-10-22 09:50:00,53.8,47.8,30.04,NE,45,2.7,-999.0,80,-99.99,,,0.00,Acu-Link.com,2013-10-22 14:50:00,
2013-10-22 10:05:00,56.5,47.6,30.04,NNE,22,2.2,-999.0,72,-99.99,,,0.00,Acu-Link.com,2013-10-22 15:05:00,
2013-10-22 10:20:00,57.2,47.5,30.04,NNW,337,2.7,-999.0,70,-99.99,,,0.00,Acu-Link.com,2013-10-22 15:20:00,
2013-10-22 10:35:00,58.6,48.8,30.04,NW,315,0.0,-999.0,70,-99.99,,,0.00,Acu-Link.com,2013-10-22 15:35:00,
2013-10-22 10:50:00,61.0,49.1,30.04,NW,315,0.0,-999.0,65,-99.99,,,0.00,Acu-Link.com,2013-10-22 15:50:00,
2013-10-22 11:05:00,62.8,45.9,30.04,West,270,3.7,-999.0,54,-99.99,,,0.00,Acu-Link.com,2013-10-22 16:05:00,
2013-10-22 11:21:00,64.2,46.2,30.03,West,270,1.7,-999.0,52,-99.99,,,0.00,Acu-Link.com,2013-10-22 16:21:00,
2013-10-22 11:36:00,65.7,44.9,30.03,NW,315,3.7,-999.0,47,-99.99,,,0.00,Acu-Link.com,2013-10-22 16:36:00,
2013-10-22 11:51:00,66.9,42.4,30.03,SW,225,2.7,-999.0,41,-99.99,,,0.00,Acu-Link.com,2013-10-22 16:51:00,
2013-10-22 12:06:00,67.5,41.0,30.02,WSW,247,2.7,-999.0,38,-99.99,,,0.00,Acu-Link.com,2013-10-22 17:06:00,
2013-10-22 12:21:00,69.6,37.6,30.02,West,270,2.2,-999.0,31,-99.99,,,0.00,Acu-Link.com,2013-10-22 17:21:00,
2013-10-22 12:36:00,70.3,40.6,30.01,NE,45,4.2,-999.0,34,-99.99,,,0.00,Acu-Link.com,2013-10-22 17:36:00,
2013-10-22 12:52:00,69.8,37.8,30.00,SW,225,0.0,-999.0,31,-99.99,,,0.00,Acu-Link.com,2013-10-22 17:52:00,
2013-10-22 13:07:00,70.3,38.2,30.00,NNW,337,2.7,-999.0,31,-99.99,,,0.00,Acu-Link.com,2013-10-22 18:07:00,
2013-10-22 13:22:00,71.1,34.5,29.99,WSW,247,2.2,-999.0,26,-99.99,,,0.00,Acu-Link.com,2013-10-22 18:22:00,
2013-10-22 13:37:00,72.1,37.2,29.98,WNW,292,2.2,-999.0,28,-99.99,,,0.00,Acu-Link.com,2013-10-22 18:37:00,
2013-10-22 13:53:00,72.7,36.8,29.97,West,270,1.7,-999.0,27,-99.99,,,0.00,Acu-Link.com,2013-10-22 18:53:00,
2013-10-22 14:08:00,73.4,36.4,29.96,South,180,1.7,-999.0,26,-99.99,,,0.00,Acu-Link.com,2013-10-22 19:08:00,
2013-10-22 14:23:00,73.4,37.4,29.95,SSW,202,4.7,-999.0,27,-99.99,,,0.00,Acu-Link.com,2013-10-22 19:23:00,
2013-10-22 14:39:00,73.8,36.8,29.95,North,0,2.2,-999.0,26,-99.99,,,0.00,Acu-Link.com,2013-10-22 19:39:00,
2013-10-22 14:54:00,74.3,37.2,29.95,NE,45,3.7,-999.0,26,-99.99,,,0.00,Acu-Link.com,2013-10-22 19:54:00,
2013-10-22 15:09:00,74.8,38.6,29.94,WSW,247,5.8,-999.0,27,-99.99,,,0.00,Acu-Link.com,2013-10-22 20:09:00,
2013-10-22 15:24:00,75.7,36.3,29.94,SE,135,3.2,-999.0,24,-99.99,,,0.00,Acu-Link.com,2013-10-22 20:24:00,
2013-10-22 15:39:00,75.2,35.9,29.94,West,270,4.2,-999.0,24,-99.99,,,0.00,Acu-Link.com,2013-10-22 20:39:00,
2013-10-22 15:55:00,76.1,36.7,29.93,WNW,292,2.7,-999.0,24,-99.99,,,0.00,Acu-Link.com,2013-10-22 20:55:00,
2013-10-22 16:10:00,75.0,37.8,29.93,West,270,2.2,-999.0,26,-99.99,,,0.00,Acu-Link.com,2013-10-22 21:10:00,
2013-10-22 16:25:00,76.1,38.7,29.92,SW,225,6.3,-999.0,26,-99.99,,,0.00,Acu-Link.com,2013-10-22 21:25:00,
2013-10-22 16:40:00,75.4,38.1,29.92,NE,45,4.7,-999.0,26,-99.99,,,0.00,Acu-Link.com,2013-10-22 21:40:00,
2013-10-22 16:56:00,75.4,38.1,29.92,WSW,247,3.2,-999.0,26,-99.99,,,0.00,Acu-Link.com,2013-10-22 21:56:00,
2013-10-22 17:11:00,75.6,37.3,29.91,WNW,292,4.2,-999.0,25,-99.99,,,0.00,Acu-Link.com,2013-10-22 22:11:00,
2013-10-22 17:26:00,75.4,38.1,29.91,West,270,1.1,-999.0,26,-99.99,,,0.00,Acu-Link.com,2013-10-22 22:26:00,
2013-10-22 17:41:00,75.0,38.7,29.91,SW,225,0.0,-999.0,27,-99.99,,,0.00,Acu-Link.com,2013-10-22 22:41:00,
2013-10-22 17:56:00,75.0,37.8,29.91,WSW,247,2.7,-999.0,26,-99.99,,,0.00,Acu-Link.com,2013-10-22 22:56:00,
2013-10-22 18:12:00,74.5,37.4,29.90,SW,225,0.0,-999.0,26,-99.99,,,0.00,Acu-Link.com,2013-10-22 23:12:00,
2013-10-22 18:27:00,75.4,43.5,29.91,SW,225,0.0,-999.0,32,-99.99,,,0.00,Acu-Link.com,2013-10-22 23:27:00,
2013-10-22 18:42:00,74.7,42.9,29.91,SSW,202,0.0,-999.0,32,-99.99,,,0.00,Acu-Link.com,2013-10-22 23:42:00,
2013-10-22 18:57:00,71.1,41.3,29.91,SW,225,0.0,-999.0,34,-99.99,,,0.00,Acu-Link.com,2013-10-22 23:57:00,
2013-10-22 19:12:00,67.8,41.3,29.91,SW,225,0.0,-999.0,38,-99.99,,,0.00,Acu-Link.com,2013-10-23 00:12:00,
2013-10-22 19:27:00,64.8,41.2,29.92,SW,225,0.0,-999.0,42,-99.99,,,0.00,Acu-Link.com,2013-10-23 00:27:00,
2013-10-22 19:43:00,62.6,42.1,29.92,SW,225,0.0,-999.0,47,-99.99,,,0.00,Acu-Link.com,2013-10-23 00:43:00,
2013-10-22 19:58:00,61.2,41.4,29.92,SW,225,0.0,-999.0,48,-99.99,,,0.00,Acu-Link.com,2013-10-23 00:58:00,
2013-10-22 20:13:00,59.5,39.8,29.93,SW,225,0.0,-999.0,48,-99.99,,,0.00,Acu-Link.com,2013-10-23 01:13:00,
2013-10-22 20:28:00,58.6,43.0,29.93,SW,225,0.0,-999.0,56,-99.99,,,0.00,Acu-Link.com,2013-10-23 01:28:00,
2013-10-22 20:44:00,57.4,42.7,29.93,SW,225,0.0,-999.0,58,-99.99,,,0.00,Acu-Link.com,2013-10-23 01:44:00,
2013-10-22 20:59:00,56.3,41.3,29.94,SW,225,0.0,-999.0,57,-99.99,,,0.00,Acu-Link.com,2013-10-23 01:59:00,
2013-10-22 21:14:00,55.4,40.9,29.93,SW,225,0.0,-999.0,58,-99.99,,,0.00,Acu-Link.com,2013-10-23 02:14:00,
2013-10-22 21:30:00,54.7,41.1,29.93,SW,225,0.0,-999.0,60,-99.99,,,0.00,Acu-Link.com,2013-10-23 02:30:00,
2013-10-22 21:45:00,53.8,41.5,29.94,SW,225,0.0,-999.0,63,-99.99,,,0.00,Acu-Link.com,2013-10-23 02:45:00,
2013-10-22 22:00:00,53.2,41.3,29.95,SW,225,0.0,-999.0,64,-99.99,,,0.00,Acu-Link.com,2013-10-23 03:00:00,
2013-10-22 22:15:00,53.4,42.7,29.95,SW,225,0.0,-999.0,67,-99.99,,,0.00,Acu-Link.com,2013-10-23 03:15:00,
2013-10-22 22:31:00,53.2,43.3,29.96,SW,225,0.0,-999.0,69,-99.99,,,0.00,Acu-Link.com,2013-10-23 03:31:00,
2013-10-22 22:46:00,52.9,43.0,29.96,SW,225,0.0,-999.0,69,-99.99,,,0.00,Acu-Link.com,2013-10-23 03:46:00,
2013-10-22 23:02:00,54.0,42.9,29.97,SW,225,0.0,-999.0,66,-99.99,,,0.00,Acu-Link.com,2013-10-23 04:02:00,
2013-10-22 23:17:00,53.1,42.4,29.97,SW,225,0.0,-999.0,67,-99.99,,,0.00,Acu-Link.com,2013-10-23 04:17:00,
2013-10-22 23:32:00,52.3,42.1,29.97,SW,225,0.0,-999.0,68,-99.99,,,0.00,Acu-Link.com,2013-10-23 04:32:00,
2013-10-22 23:47:00,52.0,42.1,29.97,SW,225,0.0,-999.0,69,-99.99,,,0.00,Acu-Link.com,2013-10-23 04:47:00,